sat.trackr.live / text

‹ back to catalog

STARLINK-31601

NORAD 59209 · 2024-046J

PAYLOAD ACTIVE UNKNOWN

§ Identity

Operator
Country
US
Launch date
2024-03-11
Launch site
AFWTR
Launch vehicle
Mass (kg)
RCS (m²)

Purposes: comms

External: N2YO · Heavens-Above · Gunter

§ Orbital elements

Epoch: 2026-05-24T18:20:54.302496Z

Period
93.85 min
Inclination
53.1604°
Eccentricity
0.0001191
Mean motion
15.34391269 rev/d
Perigee alt
461.9 km
Apogee alt
463.5 km
Semi-major
6,840.9 km
B*
2.5887e-5
RAAN
160.7976°
Arg perigee
90.4527°
Mean anomaly
269.6613°
Rev number
12,471

§ Raw data

STARLINK-316011 59209U 24046J   26144.76451739  .00000498  00000+0  25887-4 0  99942 59209  53.1604 160.7976 0001191  90.4527 269.6613 15.34391269124712

JSON: /api/v1/satellites/59209 · /tle

For live sub-satellite position, see the globe view (requires WebGL).

§ Visibility from observer

Set your observer location to see the next 7 days of passes ≥ 10°. The values pass through the URL so the page stays shareable.

No JS? Fill the form by hand. The geolocation button needs JavaScript.